20-11-2022, 00:00:08,    160,    0.0,    3.8,   0.00,   0.00, 1008.0,   80.4, -999.0
20-11-2022, 00:00:17,    162,    0.0,    3.8,   0.00,   0.00, 1008.0,   80.4, -999.0
20-11-2022, 00:00:28,    162,    0.0,    3.8,   0.00,   0.00, 1008.0,   80.3, -999.0
20-11-2022, 00:00:38,    162,    0.0,    3.8,   0.00,   0.00, 1008.0,   80.4, -999.0
20-11-2022, 00:00:47,    162,    0.0,    3.8,   0.00,   0.00, 1008.0,   80.4, -999.0
20-11-2022, 00:00:57,    162,    0.0,    3.8,   0.00,   0.00, 1008.1,   80.5, -999.0
20-11-2022, 00:01:08,    163,    0.0,    3.8,   0.00,   0.00, 1008.0,   80.5, -999.0
20-11-2022, 00:01:17,    162,    0.1,    3.8,   0.00,   0.00, 1008.1,   80.6, -999.0
20-11-2022, 00:01:27,    162,    0.0,    3.7,   0.00,   0.00, 1008.0,   80.4, -999.0
20-11-2022, 00:01:37,    162,    0.0,    3.8,   0.00,   0.00, 1008.0,   80.4, -999.0
20-11-2022, 00:01:47,    162,    0.0,    3.7,   0.00,   0.00, 1008.0,   80.5, -999.0
20-11-2022, 00:01:57,    162,    0.0,    3.8,   0.00,   0.00, 1008.0,   80.6, -999.0
20-11-2022, 00:02:07,    162,    0.0,    3.8,   0.00,   0.00, 1008.0,   80.7, -999.0
20-11-2022, 00:02:17,    162,    0.0,    3.8,   0.00,   0.00, 1008.0,   80.6, -999.0
20-11-2022, 00:02:27,    162,    0.0,    3.8,   0.00,   0.00, 1008.0,   80.6, -999.0
20-11-2022, 00:02:37,    162,    0.0,    3.8,   0.00,   0.00, 1007.9,   80.6, -999.0
20-11-2022, 00:02:47,    162,    0.0,    3.7,   0.00,   0.00, 1008.0,   80.7, -999.0
20-11-2022, 00:02:57,    162,    0.0,    3.8,   0.00,   0.00, 1007.9,   80.8, -999.0
20-11-2022, 00:03:07,    162,    0.0,    3.9,   0.00,   0.00, 1008.0,   80.8, -999.0
20-11-2022, 00:03:17,    162,    0.0,    3.8,   0.00,   0.00, 1008.0,   80.7, -999.0
20-11-2022, 00:03:27,    162,    0.0,    3.9,   0.00,   0.00, 1008.0,   80.6, -999.0
20-11-2022, 00:03:37,    162,    0.0,    3.8,   0.00,   0.00, 1008.0,   80.4, -999.0
20-11-2022, 00:03:47,    162,    0.0,    3.9,   0.00,   0.00, 1007.9,   80.3, -999.0
20-11-2022, 00:03:57,    162,    0.3,    3.9,   0.00,   0.00, 1008.0,   80.6, -999.0
20-11-2022, 00:04:07,    162,    0.0,    3.8,   0.00,   0.00, 1007.9,   80.0, -999.0
20-11-2022, 00:04:17,    162,    0.0,    3.8,   0.00,   0.00, 1008.0,   80.1, -999.0
20-11-2022, 00:04:27,    162,    0.7,    4.0,   0.00,   0.00, 1008.1,   80.6, -999.0
20-11-2022, 00:04:37,    162,    0.0,    3.8,   0.00,   0.00, 1007.9,   80.3, -999.0
20-11-2022, 00:04:47,    162,    0.0,    3.9,   0.00,   0.00, 1007.9,   80.3, -999.0
20-11-2022, 00:04:57,    162,    0.0,    3.9,   0.00,   0.00, 1007.9,   80.2, -999.0
20-11-2022, 00:05:07,    162,    0.0,    3.9,   0.00,   0.00, 1007.9,   80.3, -999.0
20-11-2022, 00:05:17,    162,    0.3,    4.0,   0.00,   0.00, 1008.0,   80.7, -999.0
20-11-2022, 00:05:27,    162,    0.1,    4.0,   0.00,   0.00, 1008.0,   80.4, -999.0
20-11-2022, 00:05:37,    162,    0.3,    4.0,   0.00,   0.00, 1008.0,   80.5, -999.0
20-11-2022, 00:05:47,    162,    0.4,    4.1,   0.00,   0.00, 1008.0,   80.5, -999.0
20-11-2022, 00:05:57,    162,    0.1,    4.1,   0.00,   0.00, 1008.0,   80.4, -999.0
20-11-2022, 00:06:06,    162,    0.0,    4.0,   0.00,   0.00, 1007.9,   80.2, -999.0
20-11-2022, 00:06:17,    162,    0.0,    4.0,   0.00,   0.00, 1007.9,   79.9, -999.0
20-11-2022, 00:06:27,    161,    0.0,    3.9,   0.00,   0.00, 1007.9,   79.8, -999.0
20-11-2022, 00:06:36,    162,    0.0,    3.9,   0.00,   0.00, 1007.9,   79.8, -999.0
20-11-2022, 00:06:47,    161,    0.3,    4.0,   0.00,   0.00, 1008.0,   79.9, -999.0
20-11-2022, 00:06:57,    161,    0.0,    3.8,   0.00,   0.00, 1007.9,   79.7, -999.0
20-11-2022, 00:07:06,    162,    0.3,    3.8,   0.00,   0.00, 1008.0,   80.0, -999.0
20-11-2022, 00:07:16,    161,    0.2,    3.9,   0.00,   0.00, 1008.0,   80.2, -999.0
20-11-2022, 00:07:27,    161,    0.0,    3.8,   0.00,   0.00, 1007.9,   79.9, -999.0
20-11-2022, 00:07:36,    162,    0.0,    3.8,   0.00,   0.00, 1007.9,   79.9, -999.0
20-11-2022, 00:07:46,    161,    0.1,    3.8,   0.00,   0.00, 1008.0,   80.2, -999.0
20-11-2022, 00:07:56,    161,    0.0,    3.8,   0.00,   0.00, 1007.9,   80.1, -999.0
20-11-2022, 00:08:07,    161,    0.0,    3.7,   0.00,   0.00, 1007.9,   80.2, -999.0
20-11-2022, 00:08:16,    161,    0.0,    3.8,   0.00,   0.00, 1007.9,   80.3, -999.0
20-11-2022, 00:08:26,    161,    0.4,    3.7,   0.00,   0.00, 1008.0,   80.6, -999.0
20-11-2022, 00:08:36,    130,    0.7,    3.9,   0.00,   0.00, 1008.0,   80.8, -999.0
20-11-2022, 00:08:46,    129,    0.3,    4.0,   0.00,   0.00, 1008.0,   80.8, -999.0
20-11-2022, 00:08:56,    129,    0.0,    4.0,   0.00,   0.00, 1007.9,   80.6, -999.0
20-11-2022, 00:09:06,    129,    0.0,    4.0,   0.00,   0.00, 1007.9,   80.4, -999.0
20-11-2022, 00:09:16,    130,    0.3,    4.0,   0.00,   0.00, 1008.0,   80.5, -999.0
20-11-2022, 00:09:26,    130,    0.5,    4.0,   0.00,   0.00, 1008.0,   80.5, -999.0
20-11-2022, 00:09:36,    130,    0.1,    4.0,   0.00,   0.00, 1007.9,   79.9, -999.0
20-11-2022, 00:09:46,    162,    0.0,    3.7,   0.00,   0.00, 1007.9,   79.8, -999.0
20-11-2022, 00:09:56,    161,    0.0,    3.8,   0.00,   0.00, 1007.9,   79.8, -999.0
20-11-2022, 00:10:06,    157,    0.7,    3.8,   0.00,   0.00, 1008.0,   80.3, -999.0
20-11-2022, 00:10:16,    156,    0.1,    3.8,   0.00,   0.00, 1007.9,   80.1, -999.0
20-11-2022, 00:10:26,    157,    0.1,    3.8,   0.00,   0.00, 1008.0,   80.2, -999.0
20-11-2022, 00:10:36,    156,    0.8,    3.8,   0.00,   0.00, 1008.0,   80.5, -999.0
20-11-2022, 00:10:46,    172,    0.5,    3.8,   0.00,   0.00, 1008.1,   80.5, -999.0
20-11-2022, 00:10:56,    172,    0.5,    3.7,   0.00,   0.00, 1008.0,   80.6, -999.0
20-11-2022, 00:11:06,    172,    0.3,    3.7,   0.00,   0.00, 1008.0,   80.4, -999.0
20-11-2022, 00:11:16,    172,    0.0,    3.7,   0.00,   0.00, 1007.9,   80.3, -999.0
20-11-2022, 00:11:26,    172,    0.0,    3.7,   0.00,   0.00, 1007.9,   80.4, -999.0
20-11-2022, 00:11:36,    172,    0.0,    3.7,   0.00,   0.00, 1007.9,   80.5, -999.0
20-11-2022, 00:11:46,    172,    0.1,    3.7,   0.00,   0.00, 1007.9,   80.5, -999.0
20-11-2022, 00:11:56,    172,    1.0,    3.7,   0.00,   0.00, 1008.0,   80.9, -999.0
20-11-2022, 00:12:06,    171,    0.8,    3.8,   0.00,   0.00, 1008.0,   81.0, -999.0
20-11-2022, 00:12:16,    171,    0.3,    3.7,   0.00,   0.00, 1007.9,   81.0, -999.0
20-11-2022, 00:12:25,    172,    0.0,    3.6,   0.00,   0.00, 1007.9,   80.8, -999.0
20-11-2022, 00:12:36,    172,    0.0,    3.7,   0.00,   0.00, 1007.9,   80.9, -999.0
20-11-2022, 00:12:46,    171,    0.0,    3.8,   0.00,   0.00, 1007.9,   80.9, -999.0
20-11-2022, 00:12:55,    171,    0.0,    3.7,   0.00,   0.00, 1007.9,   81.0, -999.0
20-11-2022, 00:13:05,    171,    0.0,    3.8,   0.00,   0.00, 1007.9,   81.1, -999.0
20-11-2022, 00:13:16,    172,    0.2,    3.8,   0.00,   0.00, 1008.0,   81.1, -999.0
20-11-2022, 00:13:25,    172,    0.3,    3.8,   0.00,   0.00, 1008.0,   81.0, -999.0
20-11-2022, 00:13:35,    171,    0.0,    3.8,   0.00,   0.00, 1007.9,   80.6, -999.0
20-11-2022, 00:13:45,    171,    0.0,    3.8,   0.00,   0.00, 1007.9,   80.5, -999.0
20-11-2022, 00:13:56,    171,    0.3,    3.7,   0.00,   0.00, 1008.0,   80.9, -999.0
20-11-2022, 00:14:05,    171,    0.0,    3.7,   0.00,   0.00, 1007.9,   80.7, -999.0
20-11-2022, 00:14:15,    171,    0.0,    3.7,   0.00,   0.00, 1007.9,   80.8, -999.0
20-11-2022, 00:14:26,    171,    0.0,    3.7,   0.00,   0.00, 1007.9,   80.8, -999.0
20-11-2022, 00:14:35,    171,    0.0,    3.7,   0.00,   0.00, 1007.9,   80.8, -999.0
20-11-2022, 00:14:45,    171,    0.0,    3.8,   0.00,   0.00, 1007.9,   80.9, -999.0
20-11-2022, 00:14:55,    171,    0.0,    3.8,   0.00,   0.00, 1007.9,   80.9, -999.0
20-11-2022, 00:15:05,    171,    0.0,    3.7,   0.00,   0.00, 1007.9,   80.8, -999.0
20-11-2022, 00:15:15,    171,    0.0,    3.8,   0.00,   0.00, 1007.9,   80.7, -999.0
20-11-2022, 00:15:25,    171,    0.0,    3.8,   0.00,   0.00, 1007.9,   80.7, -999.0
20-11-2022, 00:15:35,    171,    0.0,    3.8,   0.00,   0.00, 1007.9,   80.7, -999.0
20-11-2022, 00:15:45,    171,    0.5,    3.7,   0.00,   0.00, 1008.0,   81.0, -999.0
20-11-2022, 00:15:55,    171,    0.0,    3.7,   0.00,   0.00, 1007.9,   80.6, -999.0
20-11-2022, 00:16:05,    171,    0.0,    3.8,   0.00,   0.00, 1007.9,   80.7, -999.0
20-11-2022, 00:16:15,    171,    0.0,    3.8,   0.00,   0.00, 1007.9,   80.7, -999.0
20-11-2022, 00:16:25,    171,    0.0,    3.8,   0.00,   0.00, 1007.9,   80.9, -999.0
20-11-2022, 00:16:35,    171,    0.5,    3.8,   0.00,   0.00, 1008.0,   81.2, -999.0
20-11-2022, 00:16:45,    171,    0.0,    3.8,   0.00,   0.00, 1007.9,   80.7, -999.0
20-11-2022, 00:16:55,    171,    0.0,    3.6,   0.00,   0.00, 1007.9,   80.6, -999.0
20-11-2022, 00:17:05,    171,    0.0,    3.7,   0.00,   0.00, 1007.9,   80.7, -999.0
20-11-2022, 00:17:15,    171,    0.0,    3.6,   0.00,   0.00, 1007.9,   80.7, -999.0
20-11-2022, 00:17:25,    171,    0.0,    3.8,   0.00,   0.00, 1007.9,   80.8, -999.0
20-11-2022, 00:17:35,    171,    0.5,    3.8,   0.00,   0.00, 1008.0,   81.1, -999.0
20-11-2022, 00:17:45,    171,    0.6,    3.8,   0.00,   0.00, 1008.0,   81.0, -999.0
20-11-2022, 00:17:55,    171,    0.2,    3.8,   0.00,   0.00, 1008.0,   80.7, -999.0
20-11-2022, 00:18:05,    171,    0.0,    3.7,   0.00,   0.00, 1007.9,   80.6, -999.0
20-11-2022, 00:18:15,    171,    0.7,    3.8,   0.00,   0.00, 1008.0,   80.9, -999.0
20-11-2022, 00:18:25,    171,    0.5,    3.8,   0.00,   0.00, 1008.0,   80.9, -999.0
20-11-2022, 00:18:35,    171,    0.0,    3.7,   0.00,   0.00, 1007.9,   80.7, -999.0
20-11-2022, 00:18:44,    171,    0.5,    3.6,   0.00,   0.00, 1008.0,   81.1, -999.0
20-11-2022, 00:18:55,    170,    0.2,    3.6,   0.00,   0.00, 1007.9,   80.8, -999.0
20-11-2022, 00:19:05,    171,    0.1,    3.6,   0.00,   0.00, 1008.0,   80.9, -999.0
20-11-2022, 00:19:14,    171,    0.3,    3.7,   0.00,   0.00, 1008.0,   81.0, -999.0
20-11-2022, 00:19:24,    171,    0.4,    3.8,   0.00,   0.00, 1008.0,   81.2, -999.0
20-11-2022, 00:19:35,    171,    0.3,    3.7,   0.00,   0.00, 1008.0,   81.0, -999.0
20-11-2022, 00:19:44,    171,    0.4,    3.8,   0.00,   0.00, 1008.1,   81.3, -999.0
20-11-2022, 00:19:54,    171,    0.1,    3.7,   0.00,   0.00, 1008.0,   81.1, -999.0
20-11-2022, 00:20:04,    171,    0.3,    3.7,   0.00,   0.00, 1008.0,   81.3, -999.0
20-11-2022, 00:20:14,    171,    0.5,    3.7,   0.00,   0.00, 1008.0,   81.3, -999.0
20-11-2022, 00:20:24,    185,    0.7,    3.6,   0.00,   0.00, 1008.0,   81.3, -999.0
20-11-2022, 00:20:34,    184,    0.0,    3.6,   0.00,   0.00, 1007.9,   81.1, -999.0
20-11-2022, 00:20:44,    184,    0.0,    3.6,   0.00,   0.00, 1007.9,   81.1, -999.0
20-11-2022, 00:20:54,    184,    0.0,    3.7,   0.00,   0.00, 1007.9,   81.2, -999.0
20-11-2022, 00:21:04,    184,    0.0,    3.7,   0.00,   0.00, 1007.9,   81.3, -999.0
20-11-2022, 00:21:14,    184,    0.0,    3.6,   0.00,   0.00, 1007.9,   81.3, -999.0
20-11-2022, 00:21:24,    184,    0.1,    3.7,   0.00,   0.00, 1008.0,   81.6, -999.0
20-11-2022, 00:21:34,    171,    0.8,    3.7,   0.00,   0.00, 1008.0,   81.8, -999.0
20-11-2022, 00:21:44,    171,    0.1,    3.7,   0.00,   0.00, 1007.9,   81.3, -999.0
20-11-2022, 00:21:54,    172,    0.0,    3.6,   0.00,   0.00, 1007.9,   81.0, -999.0
20-11-2022, 00:22:04,    171,    0.0,    3.7,   0.00,   0.00, 1007.9,   81.1, -999.0
20-11-2022, 00:22:14,    171,    0.0,    3.7,   0.00,   0.00, 1007.9,   81.2, -999.0
20-11-2022, 00:22:24,    171,    0.0,    3.7,   0.00,   0.00, 1007.9,   81.3, -999.0
20-11-2022, 00:22:34,    171,    0.0,    3.7,   0.00,   0.00, 1007.9,   81.3, -999.0
20-11-2022, 00:22:44,    171,    0.0,    3.7,   0.00,   0.00, 1007.9,   81.2, -999.0
20-11-2022, 00:22:54,    171,    0.0,    3.8,   0.00,   0.00, 1007.8,   81.3, -999.0
20-11-2022, 00:23:04,    171,    0.5,    3.8,   0.00,   0.00, 1008.0,   81.5, -999.0
20-11-2022, 00:23:14,    171,    0.0,    3.8,   0.00,   0.00, 1007.9,   81.1, -999.0
20-11-2022, 00:23:24,    171,    0.0,    3.8,   0.00,   0.00, 1007.9,   81.0, -999.0
20-11-2022, 00:23:34,    171,    0.3,    3.8,   0.00,   0.00, 1007.9,   81.4, -999.0
20-11-2022, 00:23:44,    171,    0.5,    3.8,   0.00,   0.00, 1008.0,   81.4, -999.0
20-11-2022, 00:23:54,    171,    0.0,    3.8,   0.00,   0.00, 1007.9,   81.1, -999.0
20-11-2022, 00:24:04,    171,    0.0,    3.8,   0.00,   0.00, 1007.9,   81.2, -999.0
20-11-2022, 00:24:14,    171,    0.0,    3.8,   0.00,   0.00, 1007.9,   81.2, -999.0
20-11-2022, 00:24:23,    171,    0.0,    3.7,   0.00,   0.00, 1007.9,   81.2, -999.0
20-11-2022, 00:24:34,    171,    0.0,    3.8,   0.00,   0.00, 1007.9,   81.2, -999.0
20-11-2022, 00:24:44,    171,    0.0,    3.8,   0.00,   0.00, 1007.8,   81.3, -999.0
20-11-2022, 00:24:54,    171,    0.0,    3.8,   0.00,   0.00, 1007.8,   81.2, -999.0
20-11-2022, 00:25:03,    171,    0.0,    3.8,   0.00,   0.00, 1007.8,   81.3, -999.0
20-11-2022, 00:25:14,    171,    0.0,    3.8,   0.00,   0.00, 1007.8,   81.1, -999.0
20-11-2022, 00:25:24,    171,    0.0,    3.8,   0.00,   0.00, 1007.9,   81.4, -999.0
20-11-2022, 00:25:33,    171,    0.0,    3.8,   0.00,   0.00, 1007.8,   81.2, -999.0
20-11-2022, 00:25:43,    171,    0.0,    3.8,   0.00,   0.00, 1007.9,   81.4, -999.0
20-11-2022, 00:25:54,    171,    0.0,    3.6,   0.00,   0.00, 1007.8,   81.3, -999.0
20-11-2022, 00:26:03,    172,    0.0,    3.7,   0.00,   0.00, 1007.9,   81.4, -999.0
20-11-2022, 00:26:13,    171,    0.0,    3.7,   0.00,   0.00, 1007.8,   81.4, -999.0
20-11-2022, 00:26:23,    171,    0.0,    3.7,   0.00,   0.00, 1007.9,   81.4, -999.0
20-11-2022, 00:26:33,    170,    0.0,    3.7,   0.00,   0.00, 1007.8,   81.5, -999.0
20-11-2022, 00:26:43,    171,    0.0,    3.8,   0.00,   0.00, 1007.9,   81.6, -999.0
20-11-2022, 00:26:53,    171,    0.0,    3.7,   0.00,   0.00, 1007.8,   81.6, -999.0
20-11-2022, 00:27:03,    171,    0.0,    3.7,   0.00,   0.00, 1007.8,   81.7, -999.0
20-11-2022, 00:27:13,    171,    0.0,    3.6,   0.00,   0.00, 1007.8,   81.7, -999.0
20-11-2022, 00:27:23,    171,    0.0,    3.7,   0.00,   0.00, 1007.9,   81.6, -999.0
20-11-2022, 00:27:33,    171,    0.0,    3.7,   0.00,   0.00, 1007.8,   81.7, -999.0
20-11-2022, 00:27:43,    171,    0.0,    3.7,   0.00,   0.00, 1007.8,   81.8, -999.0
20-11-2022, 00:27:53,    171,    0.0,    3.8,   0.00,   0.00, 1007.8,   81.8, -999.0
20-11-2022, 00:28:03,    171,    0.2,    3.8,   0.00,   0.00, 1007.9,   82.1, -999.0
20-11-2022, 00:28:13,    171,    0.0,    3.7,   0.00,   0.00, 1007.9,   81.8, -999.0
20-11-2022, 00:28:23,    171,    0.0,    3.8,   0.00,   0.00, 1007.9,   81.8, -999.0
20-11-2022, 00:28:33,    171,    0.0,    3.7,   0.00,   0.00, 1007.9,   81.6, -999.0
20-11-2022, 00:28:43,    171,    0.0,    3.7,   0.00,   0.00, 1007.8,   81.5, -999.0
20-11-2022, 00:28:53,    171,    0.0,    3.7,   0.00,   0.00, 1007.9,   81.5, -999.0
20-11-2022, 00:29:03,    171,    0.0,    3.6,   0.00,   0.00, 1007.9,   81.6, -999.0
20-11-2022, 00:29:13,    171,    0.0,    3.7,   0.00,   0.00, 1007.8,   81.7, -999.0
20-11-2022, 00:29:23,    171,    0.0,    3.8,   0.00,   0.00, 1007.9,   81.9, -999.0
20-11-2022, 00:29:33,    171,    0.0,    3.7,   0.00,   0.00, 1007.8,   82.0, -999.0
20-11-2022, 00:29:43,    171,    0.0,    3.7,   0.00,   0.00, 1007.9,   81.9, -999.0
20-11-2022, 00:29:53,    171,    0.0,    3.7,   0.00,   0.00, 1007.9,   81.9, -999.0
20-11-2022, 00:30:03,    171,    0.0,    3.7,   0.00,   0.00, 1007.9,   81.8, -999.0
20-11-2022, 00:30:13,    171,    0.1,    3.7,   0.00,   0.00, 1007.9,   81.9, -999.0
20-11-2022, 00:30:23,    171,    0.2,    3.7,   0.00,   0.00, 1008.0,   82.2, -999.0
20-11-2022, 00:30:33,    171,    0.0,    3.7,   0.00,   0.00, 1007.9,   81.9, -999.0
20-11-2022, 00:30:43,    171,    0.0,    3.5,   0.00,   0.00, 1007.9,   81.8, -999.0
20-11-2022, 00:30:52,    171,    0.0,    3.6,   0.00,   0.00, 1007.8,   81.8, -999.0
20-11-2022, 00:31:03,    171,    0.0,    3.6,   0.00,   0.00, 1007.9,   81.8, -999.0
20-11-2022, 00:31:13,    171,    0.0,    3.6,   0.00,   0.00, 1007.9,   81.8, -999.0
20-11-2022, 00:31:22,    171,    0.0,    3.6,   0.00,   0.00, 1007.8,   81.8, -999.0
20-11-2022, 00:31:32,    171,    0.0,    3.5,   0.00,   0.00, 1007.8,   81.9, -999.0
20-11-2022, 00:31:43,    171,    0.0,    3.5,   0.00,   0.00, 1007.9,   81.9, -999.0
20-11-2022, 00:31:53,    171,    0.0,    3.6,   0.00,   0.00, 1007.9,   82.0, -999.0
20-11-2022, 00:32:02,    171,    0.0,    3.6,   0.00,   0.00, 1007.9,   82.2, -999.0
20-11-2022, 00:32:12,    171,    0.0,    3.6,   0.00,   0.00, 1007.9,   82.3, -999.0
20-11-2022, 00:32:23,    171,    0.0,    3.6,   0.00,   0.00, 1007.9,   82.4, -999.0
20-11-2022, 00:32:34,    171,    0.0,    3.6,   0.00,   0.00, 1007.9,   82.4, -999.0
20-11-2022, 00:32:42,    171,    0.0,    3.6,   0.00,   0.00, 1007.9,   82.4, -999.0
20-11-2022, 00:32:52,    171,    0.0,    3.6,   0.00,   0.00, 1007.9,   82.4, -999.0
20-11-2022, 00:33:02,    171,    0.0,    3.6,   0.00,   0.00, 1007.8,   82.5, -999.0
20-11-2022, 00:33:12,    171,    0.0,    3.6,   0.00,   0.00, 1007.9,   82.5, -999.0
20-11-2022, 00:33:22,    171,    0.0,    3.6,   0.00,   0.00, 1007.9,   82.5, -999.0
20-11-2022, 00:33:32,    171,    0.0,    3.6,   0.00,   0.00, 1007.8,   82.7, -999.0
20-11-2022, 00:33:42,    171,    0.0,    3.6,   0.00,   0.00, 1007.9,   82.9, -999.0
20-11-2022, 00:33:52,    171,    0.0,    3.7,   0.00,   0.00, 1007.8,   82.9, -999.0
20-11-2022, 00:34:02,    171,    0.4,    3.6,   0.00,   0.00, 1007.9,   83.1, -999.0
20-11-2022, 00:34:12,    171,    0.0,    3.6,   0.00,   0.00, 1007.9,   82.8, -999.0
20-11-2022, 00:34:22,    171,    0.0,    3.6,   0.00,   0.00, 1007.8,   82.7, -999.0
20-11-2022, 00:34:32,    171,    0.0,    3.6,   0.00,   0.00, 1007.9,   82.8, -999.0
20-11-2022, 00:34:42,    171,    0.1,    3.6,   0.00,   0.00, 1007.9,   83.0, -999.0
20-11-2022, 00:34:52,    171,    0.1,    3.6,   0.00,   0.00, 1007.9,   82.9, -999.0
20-11-2022, 00:35:02,    170,    0.0,    3.6,   0.00,   0.00, 1007.9,   82.8, -999.0
20-11-2022, 00:35:12,    171,    0.0,    3.6,   0.00,   0.00, 1007.8,   82.9, -999.0
20-11-2022, 00:35:22,    171,    0.0,    3.5,   0.00,   0.00, 1007.9,   82.9, -999.0
20-11-2022, 00:35:32,    171,    0.0,    3.5,   0.00,   0.00, 1007.8,   83.0, -999.0
20-11-2022, 00:35:42,    171,    0.0,    3.5,   0.00,   0.00, 1007.8,   83.0, -999.0
20-11-2022, 00:35:52,    170,    0.0,    3.5,   0.00,   0.00, 1007.8,   83.1, -999.0
20-11-2022, 00:36:02,    171,    0.0,    3.5,   0.00,   0.00, 1007.8,   83.1, -999.0
20-11-2022, 00:36:12,    171,    0.0,    3.6,   0.00,   0.00, 1007.8,   83.2, -999.0
20-11-2022, 00:36:22,    171,    0.0,    3.5,   0.00,   0.00, 1007.8,   83.3, -999.0
20-11-2022, 00:36:32,    171,    0.0,    3.5,   0.00,   0.00, 1007.8,   83.3, -999.0
20-11-2022, 00:36:41,    171,    0.0,    3.5,   0.00,   0.00, 1007.8,   83.4, -999.0
20-11-2022, 00:36:52,    171,    0.0,    3.5,   0.00,   0.00, 1007.9,   83.4, -999.0
20-11-2022, 00:37:02,    171,    0.0,    3.5,   0.00,   0.00, 1007.8,   83.7, -999.0
20-11-2022, 00:37:11,    171,    0.0,    3.5,   0.00,   0.00, 1007.9,   83.8, -999.0
20-11-2022, 00:37:21,    171,    0.0,    3.6,   0.00,   0.00, 1007.8,   83.8, -999.0
20-11-2022, 00:37:32,    171,    0.0,    3.6,   0.00,   0.00, 1007.8,   83.8, -999.0
20-11-2022, 00:37:42,    171,    0.0,    3.3,   0.00,   0.00, 1007.8,   83.9, -999.0
20-11-2022, 00:37:51,    171,    0.0,    3.6,   0.00,   0.00, 1007.8,   83.8, -999.0
20-11-2022, 00:38:01,    171,    0.0,    3.6,   0.00,   0.00, 1007.8,   83.8, -999.0
20-11-2022, 00:38:12,    170,    0.0,    3.5,   0.00,   0.00, 1007.8,   83.7, -999.0
20-11-2022, 00:38:21,    171,    0.0,    3.5,   0.00,   0.00, 1007.8,   83.9, -999.0
20-11-2022, 00:38:31,    171,    0.0,    3.6,   0.00,   0.00, 1007.7,   84.2, -999.0
20-11-2022, 00:38:42,    171,    0.0,    3.5,   0.00,   0.00, 1007.8,   84.4, -999.0
20-11-2022, 00:38:51,    171,    0.0,    3.6,   0.00,   0.00, 1007.8,   84.4, -999.0
20-11-2022, 00:39:01,    171,    0.0,    3.4,   0.00,   0.00, 1007.8,   84.6, -999.0
20-11-2022, 00:39:11,    171,    0.0,    3.6,   0.00,   0.00, 1007.7,   84.5, -999.0
20-11-2022, 00:39:21,    171,    0.0,    3.4,   0.00,   0.00, 1007.7,   84.3, -999.0
20-11-2022, 00:39:31,    171,    0.0,    3.5,   0.00,   0.00, 1007.7,   84.2, -999.0
20-11-2022, 00:39:41,    171,    0.0,    3.5,   0.00,   0.00, 1007.7,   84.3, -999.0
20-11-2022, 00:39:51,    171,    0.0,    3.4,   0.00,   0.00, 1007.7,   84.3, -999.0
20-11-2022, 00:40:01,    171,    0.0,    3.5,   0.00,   0.00, 1007.7,   84.4, -999.0
20-11-2022, 00:40:11,    171,    0.0,    3.5,   0.00,   0.00, 1007.7,   84.6, -999.0
20-11-2022, 00:40:21,    171,    0.0,    3.5,   0.00,   0.00, 1007.7,   84.8, -999.0
20-11-2022, 00:40:31,    171,    0.0,    3.6,   0.00,   0.00, 1007.7,   84.8, -999.0
20-11-2022, 00:40:41,    171,    0.4,    3.5,   0.00,   0.00, 1007.8,   84.9, -999.0
20-11-2022, 00:40:51,    171,    0.0,    3.5,   0.00,   0.00, 1007.7,   84.2, -999.0
20-11-2022, 00:41:01,    171,    0.0,    3.5,   0.00,   0.00, 1007.7,   84.3, -999.0
20-11-2022, 00:41:11,    171,    0.0,    3.6,   0.00,   0.00, 1007.7,   84.4, -999.0
20-11-2022, 00:41:21,    171,    0.0,    3.5,   0.00,   0.00, 1007.7,   84.5, -999.0
20-11-2022, 00:41:31,    171,    0.0,    3.5,   0.00,   0.00, 1007.7,   84.7, -999.0
20-11-2022, 00:41:41,    171,    0.0,    3.6,   0.00,   0.00, 1007.7,   84.9, -999.0
20-11-2022, 00:41:51,    171,    0.0,    3.7,   0.00,   0.00, 1007.7,   85.0, -999.0
20-11-2022, 00:42:01,    171,    0.0,    3.7,   0.00,   0.00, 1007.7,   84.9, -999.0
20-11-2022, 00:42:11,    172,    0.0,    3.7,   0.00,   0.00, 1007.7,   84.8, -999.0
20-11-2022, 00:42:21,    171,    0.0,    3.7,   0.00,   0.00, 1007.7,   84.9, -999.0
20-11-2022, 00:42:31,    171,    0.0,    3.8,   0.00,   0.00, 1007.7,   84.8, -999.0
20-11-2022, 00:42:41,    171,    0.0,    3.8,   0.00,   0.00, 1007.7,   84.7, -999.0
20-11-2022, 00:42:51,    171,    0.0,    3.9,   0.00,   0.00, 1007.7,   84.6, -999.0
20-11-2022, 00:43:01,    171,    0.0,    3.8,   0.00,   0.00, 1007.7,   84.2, -999.0
20-11-2022, 00:43:11,    171,    0.0,    3.7,   0.00,   0.00, 1007.7,   83.8, -999.0
20-11-2022, 00:43:21,    171,    0.0,    3.7,   0.00,   0.00, 1007.7,   83.4, -999.0
20-11-2022, 00:43:31,    171,    0.0,    3.7,   0.00,   0.00, 1007.7,   83.4, -999.0
20-11-2022, 00:43:40,    171,    0.0,    3.8,   0.00,   0.00, 1007.7,   83.4, -999.0
20-11-2022, 00:43:50,    169,    0.0,    3.7,   0.00,   0.00, 1007.7,   83.6, -999.0
20-11-2022, 00:44:01,    171,    0.0,    3.6,   0.00,   0.00, 1007.7,   83.6, -999.0
20-11-2022, 00:44:10,    171,    0.0,    3.7,   0.00,   0.00, 1007.7,   83.7, -999.0
20-11-2022, 00:44:20,    171,    0.0,    3.7,   0.00,   0.00, 1007.7,   83.6, -999.0
20-11-2022, 00:44:31,    171,    0.0,    3.6,   0.00,   0.00, 1007.7,   83.8, -999.0
20-11-2022, 00:44:40,    171,    0.0,    3.7,   0.00,   0.00, 1007.7,   83.7, -999.0
20-11-2022, 00:44:50,    171,    0.0,    3.7,   0.00,   0.00, 1007.7,   83.8, -999.0
20-11-2022, 00:45:00,    171,    0.0,    3.6,   0.00,   0.00, 1007.7,   83.8, -999.0
20-11-2022, 00:45:11,    171,    0.0,    3.7,   0.00,   0.00, 1007.7,   83.9, -999.0
20-11-2022, 00:45:20,    171,    0.0,    3.7,   0.00,   0.00, 1007.7,   83.9, -999.0
20-11-2022, 00:45:30,    171,    0.0,    3.7,   0.00,   0.00, 1007.7,   83.9, -999.0
20-11-2022, 00:45:40,    171,    0.0,    3.7,   0.00,   0.00, 1007.7,   83.9, -999.0
20-11-2022, 00:45:50,    171,    0.0,    3.7,   0.00,   0.00, 1007.7,   83.9, -999.0
20-11-2022, 00:46:00,    171,    0.0,    3.6,   0.00,   0.00, 1007.7,   83.7, -999.0
20-11-2022, 00:46:10,    171,    0.0,    3.7,   0.00,   0.00, 1007.7,   83.8, -999.0
20-11-2022, 00:46:20,    171,    0.0,    3.7,   0.00,   0.00, 1007.7,   83.7, -999.0
20-11-2022, 00:46:30,    171,    0.0,    3.6,   0.00,   0.00, 1007.7,   83.7, -999.0
20-11-2022, 00:46:40,    171,    0.0,    3.6,   0.00,   0.00, 1007.7,   83.7, -999.0
20-11-2022, 00:46:50,    171,    0.0,    3.7,   0.00,   0.00, 1007.7,   83.8, -999.0